RV1CJ-14 Weather Reports


time (UTC)temp
C
wind
direction
speed
KPH
gust
KPH
rain 1hr
cm
rain 24hr
cm
rain mn
cm
humidity
%
barometer
mb
20260906094003 13 344 1.6 6.4 0.00 0.00 0.00 76 999.4
20260906093003 12 344 1.6 4.8 0.00 0.00 0.00 78 999.2
20260906092040 12 344 0.0 3.2 0.00 0.00 0.00 80 999.0
20260906091003 12 344 0.0 3.2 0.00 0.00 0.00 82 998.9
20260906090003 12 344 0.0 3.2 0.00 0.00 0.00 81 998.9
20260906085003 12 344 0.0 1.6 0.00 0.00 0.00 80 998.7
20260906084003 12 342 0.0 3.2 0.00 0.00 0.00 80 998.7
20260906083003 12 342 0.0 4.8 0.00 0.00 0.00 80 998.6
20260906082003 12 342 1.6 4.8 0.00 0.00 0.00 81 998.5
20260906081003 12 342 0.0 3.2 0.00 0.00 0.00 81 998.5
20260906080003 12 341 0.0 1.6 0.00 0.00 0.00 82 998.3
20260906075004 12 342 1.6 3.2 0.00 0.00 0.00 82 998.1
20260906074003 12 342 0.0 3.2 0.00 0.00 0.00 82 998.1
20260906073003 12 342 0.0 1.6 0.00 0.00 0.00 81 998.0
20260906072003 12 342 1.6 6.4 0.00 0.00 0.00 80 997.9
20260906071003 12 342 0.0 3.2 0.00 0.00 0.00 81 997.8
20260906070003 12 342 0.0 4.8 0.00 0.00 0.00 84 997.7
20260906065003 12 342 0.0 3.2 0.00 0.00 0.00 85 997.6
20260906064003 12 342 0.0 3.2 0.00 0.00 0.00 86 997.5
20260906063003 12 0 0.0 0.0 0.00 0.00 0.00 86 997.4
20260906062003 12 0 0.0 0.0 0.00 0.00 0.00 86 997.3
20260906061003 12 0 0.0 0.0 0.00 0.00 0.00 86 997.2
20260906060003 12 0 0.0 0.0 0.00 0.00 0.00 87 997.2
20260906055003 12 0 0.0 0.0 0.00 0.00 0.00 88 997.1
20260906054003 11 342 0.0 1.6 0.00 0.00 0.00 88 997.0
20260906053003 11 342 0.0 3.2 0.00 0.00 0.00 89 997.0
20260906052003 11 0 0.0 0.0 0.00 0.00 0.00 90 996.9
20260906051003 11 0 0.0 0.0 0.00 0.00 0.00 90 996.8
20260906050003 11 0 0.0 0.0 0.00 0.00 0.00 91 996.7
20260906045003 11 0 0.0 0.0 0.00 0.00 0.00 91 996.6
20260906044003 11 0 0.0 0.0 0.00 0.00 0.00 91 996.5
20260906043003 11 0 0.0 0.0 0.00 0.00 0.00 91 996.4
20260906042003 11 0 0.0 0.0 0.00 0.00 0.00 91 996.4
20260906041003 11 0 0.0 0.0 0.00 0.00 0.00 91 996.3
20260906040003 11 0 0.0 0.0 0.00 0.00 0.00 91 996.2
20260906035003 12 0 0.0 0.0 0.00 0.00 0.00 91 996.1
20260906034003 12 0 0.0 0.0 0.00 0.00 0.00 91 996.0
20260906033003 12 0 0.0 0.0 0.00 0.00 0.00 91 995.8
20260906032004 12 0 0.0 0.0 0.00 0.00 0.00 90 995.7
20260906031003 12 0 0.0 0.0 0.00 0.00 0.00 90 995.6
20260906030003 12 0 0.0 0.0 0.00 0.00 0.00 90 995.5
20260906025003 12 0 0.0 0.0 0.00 0.00 0.00 90 995.4
20260906024003 12 0 0.0 0.0 0.00 0.00 0.00 90 995.4
20260906023003 12 0 0.0 0.0 0.00 0.00 0.00 90 995.3
20260906022003 12 0 0.0 0.0 0.00 0.00 0.00 90 995.2
20260906021003 12 0 0.0 0.0 0.00 0.00 0.00 90 995.1
20260906020003 12 0 0.0 0.0 0.00 0.00 0.00 91 995.0
20260906015004 12 0 0.0 0.0 0.00 0.00 0.00 91 995.0
20260906014003 12 0 0.0 0.0 0.00 0.00 0.00 91 995.0
20260906013003 12 0 0.0 0.0 0.00 0.00 0.00 91 995.0
20260906012003 12 0 0.0 0.0 0.00 0.00 0.00 90 994.9
20260906011003 12 0 0.0 0.0 0.00 0.00 0.00 90 994.8
20260906010003 12 0 0.0 0.0 0.00 0.00 0.00 90 994.8
20260906005003 12 0 0.0 0.0 0.00 0.00 0.00 90 994.6
20260906004003 12 0 0.0 0.0 0.00 0.00 0.00 90 994.5
20260906003003 12 0 0.0 0.0 0.00 0.00 0.00 91 994.5
20260906002003 12 0 0.0 0.0 0.00 0.00 0.00 91 994.4
20260906001003 12 0 0.0 0.0 0.00 0.00 0.00 92 994.3
20260906000003 12 0 0.0 0.0 0.00 0.00 0.00 92 994.2
20260905235003 12 0 0.0 0.0 0.00 0.00 0.00 92 994.1
20260905234003 12 0 0.0 0.0 0.00 0.00 0.00 93 994.1
20260905233003 12 0 0.0 0.0 0.00 0.00 0.00 93 994.0
20260905232003 12 0 0.0 0.0 0.00 0.00 0.00 93 994.0
20260905231003 12 0 0.0 0.0 0.00 0.00 0.00 93 993.9
20260905230003 12 0 0.0 0.0 0.00 0.00 0.00 92 993.9
20260905225003 12 0 0.0 0.0 0.00 0.00 0.00 92 993.8
20260905224003 12 0 0.0 0.0 0.00 0.00 0.00 91 993.8
20260905223003 12 0 0.0 0.0 0.00 0.00 0.00 91 993.8
20260905222003 13 0 0.0 0.0 0.00 0.00 0.00 91 993.8
20260905221003 13 0 0.0 0.0 0.00 0.00 0.00 91 993.8
20260905220003 13 0 0.0 0.0 0.00 0.00 0.00 91 993.7
20260905215003 13 0 0.0 0.0 0.00 0.00 0.00 91 993.8
20260905214003 13 0 0.0 0.0 0.00 0.00 0.00 91 993.7
20260905213003 13 0 0.0 0.0 0.00 0.00 0.00 91 993.7
20260905212003 13 0 0.0 0.0 0.00 0.00 0.00 91 993.7
20260905211003 12 0 0.0 0.0 0.00 0.00 0.00 91 993.7
20260905210003 12 0 0.0 0.0 0.00 0.00 0.00 91 993.6
20260905205003 12 0 0.0 0.0 0.00 0.00 0.00 91 993.5
20260905204003 12 0 0.0 0.0 0.00 0.00 0.00 91 993.5
20260905203003 12 0 0.0 0.0 0.00 0.00 0.00 91 993.5
20260905202003 13 0 0.0 0.0 0.00 0.00 0.00 91 993.4
20260905201003 13 0 0.0 0.0 0.00 0.00 0.00 91 993.6
20260905200003 13 0 0.0 0.0 0.00 0.00 0.00 91 993.5
20260905195004 13 0 0.0 0.0 0.00 0.00 0.00 91 993.5
20260905194003 13 0 0.0 0.0 0.00 0.00 0.00 91 993.5
20260905193003 13 0 0.0 0.0 0.00 0.00 0.00 91 993.4
20260905192003 13 0 0.0 0.0 0.00 0.00 0.00 90 993.4
20260905191003 13 0 0.0 0.0 0.00 0.00 0.00 90 993.4
20260905190003 13 0 0.0 0.0 0.00 0.00 0.00 90 993.5
20260905185003 13 0 0.0 0.0 0.00 0.00 0.00 90 993.5
20260905184003 13 0 0.0 0.0 0.00 0.00 0.00 89 993.5
20260905183003 13 0 0.0 0.0 0.00 0.00 0.00 89 993.5
20260905182003 13 0 0.0 0.0 0.00 0.00 0.00 89 993.5
20260905181003 13 0 0.0 0.0 0.00 0.00 0.00 89 993.5
20260905180003 13 0 0.0 0.0 0.00 0.00 0.00 90 993.5
20260905175003 13 0 0.0 0.0 0.00 0.00 0.00 90 993.5
20260905174003 13 0 0.0 0.0 0.00 0.00 0.00 90 993.4
20260905173003 13 0 0.0 0.0 0.00 0.00 0.00 90 993.4
20260905172003 12 0 0.0 0.0 0.00 0.00 0.00 90 993.4
20260905171003 12 0 0.0 0.0 0.00 0.00 0.00 90 993.4
20260905170003 12 0 0.0 0.0 0.00 0.00 0.00 90 993.2
20260905165003 12 0 0.0 0.0 0.00 0.00 0.00 90 993.1
20260905164003 12 0 0.0 0.0 0.00 0.00 0.00 89 993.2
20260905163003 12 0 0.0 0.0 0.00 0.00 0.00 89 993.1
20260905162003 12 0 0.0 0.0 0.00 0.00 0.00 88 993.2
20260905161003 12 342 0.0 3.2 0.00 0.00 0.00 86 993.0
20260905160003 13 342 1.6 3.2 0.00 0.00 0.00 83 993.1
20260905155003 15 342 1.6 4.8 0.00 0.00 0.00 81 992.9
20260905154003 15 342 1.6 3.2 0.00 0.00 0.00 83 992.7
20260905153003 15 342 1.6 4.8 0.00 0.00 0.00 82 992.6
20260905152003 15 342 1.6 4.8 0.00 0.00 0.00 81 992.6
20260905151003 15 342 1.6 3.2 0.00 0.00 0.00 80 992.5
20260905150003 15 342 1.6 4.8 0.00 0.00 0.00 81 992.5
20260905145003 15 342 1.6 4.8 0.00 0.00 0.00 79 992.3
20260905144003 15 342 1.6 3.2 0.00 0.00 0.00 78 992.3
20260905143003 15 342 0.0 3.2 0.00 0.00 0.00 79 992.1
20260905142003 15 342 0.0 3.2 0.00 0.00 0.00 80 992.0
20260905141003 15 342 0.0 3.2 0.00 0.00 0.00 82 992.0
20260905140004 15 342 1.6 4.8 0.00 0.00 0.00 81 991.9
20260905135003 15 342 0.0 3.2 0.00 0.00 0.00 79 991.9
20260905134003 15 342 0.0 3.2 0.00 0.00 0.00 79 991.9
20260905133003 15 342 0.0 3.2 0.00 0.00 0.00 79 991.8
20260905132003 14 342 0.0 3.2 0.00 0.00 0.00 79 991.8
20260905131003 14 342 0.0 1.6 0.00 0.00 0.00 81 991.8
20260905130003 13 0 0.0 0.0 0.00 0.00 0.00 82 991.7
20260905125003 13 342 0.0 3.2 0.00 0.00 0.00 82 991.8
20260905124003 14 342 1.6 4.8 0.00 0.00 0.00 80 991.7
20260905123003 15 342 1.6 4.8 0.00 0.00 0.00 80 991.6
20260905122003 15 340 1.6 6.4 0.00 0.00 0.00 82 991.6
20260905121003 15 339 1.6 3.2 0.00 0.00 0.00 79 991.6
20260905120003 15 339 1.6 4.8 0.00 0.00 0.00 80 991.4
20260905115003 15 339 1.6 3.2 0.00 0.00 0.00 82 991.3
20260905114003 15 339 0.0 4.8 0.00 0.00 0.00 80 991.2
20260905113003 16 0 0.0 0.0 0.00 0.00 0.00 80 991.1
20260905112003 16 0 0.0 0.0 0.00 0.00 0.00 77 991.2
20260905111003 16 0 0.0 0.0 0.00 0.00 0.00 76 991.1
20260905110003 16 0 0.0 0.0 0.00 0.00 0.00 77 991.0
20260905105003 16 0 0.0 0.0 0.00 0.00 0.00 79 991.0
20260905104003 15 0 0.0 0.0 0.00 0.00 0.00 80 991.0
20260905103003 15 0 0.0 0.0 0.00 0.00 0.00 80 991.0
20260905102003 15 0 0.0 0.0 0.00 0.00 0.00 80 990.9
20260905101003 15 0 0.0 0.0 0.00 0.00 0.00 81 990.8
20260905100003 15 0 0.0 0.0 0.00 0.00 0.00 81 990.7
20260905095003 15 0 0.0 0.0 0.00 0.00 0.00 82 990.7